Radiation Dose at Monitoring Post of Fukushima Daini Nuclear Power Station
Date,Time,MP-1(microSv/h),MP-2(microSv/h),MP-3(microSv/h),MP-4(microSv/h),MP-5(microSv/h),MP-6(microSv/h),MP-7(microSv/h),Wind Direction,Wind Velocity(m/s),Rain
2023/09/08,00:00,0.147,0.129,0.214,0.201,0.208,0.117,0.074,northeast,1.8,No
2023/09/08,00:10,0.146,0.130,0.212,0.204,0.210,0.117,0.076,northeast,1.2,No
2023/09/08,00:20,0.145,0.130,0.216,0.203,0.208,0.117,0.075,northeast,1.3,No
2023/09/08,00:30,0.145,0.129,0.214,0.201,0.207,0.117,0.075,northeast,2.2,No
2023/09/08,00:40,0.147,0.129,0.212,0.201,0.208,0.116,0.076,east-northeast,4.1,No
2023/09/08,00:50,0.145,0.130,0.214,0.203,0.210,0.117,0.075,northeast,4.9,No
2023/09/08,01:00,0.144,0.130,0.215,0.202,0.209,0.118,0.075,north-northeast,3.9,No
2023/09/08,01:10,0.146,0.130,0.213,0.202,0.206,0.116,0.075,north-northeast,4.3,No
2023/09/08,01:20,0.147,0.130,0.215,0.204,0.209,0.117,0.075,north-northeast,5.1,No
2023/09/08,01:30,0.145,0.130,0.216,0.204,0.209,0.117,0.075,north-northeast,5.5,No
2023/09/08,01:40,0.144,0.129,0.214,0.201,0.208,0.116,0.075,north-northeast,3.3,No
2023/09/08,01:50,0.147,0.130,0.214,0.202,0.207,0.117,0.076,north-northeast,3.8,No
2023/09/08,02:00,0.146,0.130,0.216,0.203,0.210,0.117,0.076,north-northeast,6.1,No
2023/09/08,02:10,0.144,0.129,0.215,0.202,0.209,0.118,0.075,north-northeast,4.2,No
2023/09/08,02:20,0.145,0.129,0.212,0.202,0.207,0.117,0.075,northeast,5.0,No
2023/09/08,02:30,0.147,0.130,0.215,0.203,0.207,0.117,0.075,north-northeast,3.9,No
2023/09/08,02:40,0.146,0.131,0.215,0.204,0.210,0.118,0.075,northeast,5.4,No
2023/09/08,02:50,0.144,0.129,0.213,0.201,0.208,0.118,0.075,east-northeast,5.3,No
2023/09/08,03:00,0.146,0.129,0.215,0.202,0.206,0.117,0.075,east-northeast,5.1,No
2023/09/08,03:10,0.146,0.130,0.216,0.204,0.209,0.118,0.076,east-northeast,5.8,No
2023/09/08,03:20,0.145,0.129,0.214,0.203,0.208,0.118,0.076,east-northeast,5.3,No
2023/09/08,03:30,0.145,0.129,0.213,0.202,0.208,0.118,0.075,east-northeast,5.5,No
2023/09/08,03:40,0.147,0.130,0.216,0.203,0.207,0.117,0.076,northeast,5.1,No
2023/09/08,03:50,0.146,0.130,0.214,0.203,0.211,0.118,0.075,northeast,6.3,No
2023/09/08,04:00,0.145,0.129,0.213,0.201,0.209,0.118,0.076,east-northeast,6.1,No
2023/09/08,04:10,0.145,0.130,0.215,0.203,0.208,0.116,0.075,east-northeast,6.0,No
2023/09/08,04:20,0.147,0.130,0.216,0.204,0.208,0.117,0.076,east-northeast,4.8,No
2023/09/08,04:30,0.147,0.129,0.213,0.203,0.210,0.118,0.075,east-northeast,4.5,No
2023/09/08,04:40,0.144,0.130,0.216,0.201,0.208,0.118,0.075,northeast,4.9,No
2023/09/08,04:50,0.146,0.130,0.216,0.204,0.206,0.116,0.075,east-northeast,4.2,No
2023/09/08,05:00,0.147,0.129,0.214,0.204,0.209,0.117,0.075,northeast,5.2,No
2023/09/08,05:10,0.146,0.129,0.215,0.201,0.210,0.118,0.075,northeast,4.7,No
2023/09/08,05:20,0.144,0.129,0.217,0.202,0.207,0.117,0.075,northeast,4.7,No
2023/09/08,05:30,0.148,0.130,0.214,0.205,0.208,0.116,0.075,northeast,4.3,No
2023/09/08,05:40,0.147,0.129,0.213,0.202,0.210,0.118,0.075,northeast,3.1,No
2023/09/08,05:50,0.145,0.130,0.216,0.203,0.209,0.119,0.075,northeast,4.4,No
2023/09/08,06:00,0.145,0.131,0.216,0.203,0.207,0.117,0.074,north-northeast,4.4,No
2023/09/08,06:10,0.146,0.129,0.212,0.203,0.208,0.118,0.076,northeast,3.9,No
2023/09/08,06:20,0.145,0.129,0.216,0.200,0.209,0.118,0.075,north-northeast,3.2,No
2023/09/08,06:30,0.145,0.131,0.214,0.203,0.208,0.117,0.074,northeast,2.8,No
2023/09/08,06:40,0.147,0.130,0.214,0.203,0.207,0.117,0.075,northeast,2.6,No
2023/09/08,06:50,0.147,0.129,0.216,0.201,0.211,0.118,0.075,north-northeast,2.4,No
2023/09/08,07:00,0.145,0.130,0.217,0.203,0.210,0.117,0.075,north-northwest,1.8,No
2023/09/08,07:10,0.145,0.131,0.213,0.203,0.208,0.116,0.075,north,1.7,No
2023/09/08,07:20,0.147,0.130,0.216,0.202,0.209,0.118,0.075,north-northwest,2.9,No
2023/09/08,07:30,0.146,0.129,0.217,0.203,0.210,0.117,0.075,north-northwest,3.0,No
2023/09/08,07:40,0.144,0.130,0.215,0.204,0.208,0.116,0.075,northwest,3.6,No
2023/09/08,07:50,0.147,0.130,0.216,0.202,0.207,0.118,0.075,north-northwest,3.3,No
2023/09/08,08:00,0.147,0.129,0.216,0.202,0.211,0.118,0.075,north-northwest,3.2,No
2023/09/08,08:10,0.145,0.131,0.215,0.204,0.209,0.118,0.075,north-northwest,3.4,No
2023/09/08,08:20,0.145,0.131,0.215,0.204,0.207,0.117,0.075,north-northwest,3.5,No
2023/09/08,08:30,0.147,0.129,0.216,0.202,0.209,0.117,0.076,north-northwest,2.4,No
2023/09/08,08:40,0.146,0.129,0.215,0.205,0.210,0.117,0.075,north-northwest,3.3,No
2023/09/08,08:50,0.144,0.131,0.214,0.204,0.208,0.117,0.075,north-northwest,3.8,No
2023/09/08,09:00,0.146,0.130,0.216,0.201,0.208,0.118,0.075,north-northwest,4.8,No
2023/09/08,09:10,0.147,0.129,0.216,0.203,0.210,0.118,0.075,north-northwest,4.8,No
2023/09/08,09:20,0.145,0.130,0.214,0.204,0.209,0.117,0.075,north-northwest,3.1,Yes
2023/09/08,09:30,0.144,0.130,0.218,0.202,0.207,0.118,0.074,north-northwest,2.0,Yes
2023/09/08,09:40,0.147,0.129,0.217,0.202,0.210,0.117,0.075,north,2.7,Yes
2023/09/08,09:50,0.146,0.130,0.215,0.206,0.209,0.118,0.075,north-northeast,2.1,Yes
2023/09/08,10:00,0.146,0.131,0.216,0.204,0.207,0.117,0.075,northeast,2.8,Yes
2023/09/08,10:10,0.145,0.129,0.216,0.201,0.208,0.117,0.075,northeast,4.0,Yes
2023/09/08,10:20,0.148,0.130,0.215,0.204,0.212,0.118,0.076,northeast,3.5,Yes
2023/09/08,10:30,0.146,0.131,0.215,0.204,0.208,0.118,0.076,north-northeast,3.6,Yes
2023/09/08,10:40,0.146,0.130,0.218,0.203,0.209,0.119,0.076,northeast,3.8,Yes
2023/09/08,10:50,0.147,0.130,0.215,0.203,0.210,0.118,0.076,northeast,3.6,Yes
2023/09/08,11:00,0.147,0.131,0.216,0.204,0.208,0.118,0.076,north-northeast,3.4,Yes
2023/09/08,11:10,0.146,0.131,0.216,0.203,0.208,0.120,0.076,northeast,3.6,Yes
2023/09/08,11:20,0.148,0.130,0.215,0.203,0.210,0.118,0.077,north,3.2,Yes
2023/09/08,11:30,0.147,0.131,0.214,0.203,0.208,0.117,0.076,north,3.7,Yes
2023/09/08,11:40,0.145,0.131,0.216,0.201,0.208,0.119,0.076,north-northeast,3.7,Yes
2023/09/08,11:50,0.146,0.130,0.214,0.203,0.210,0.118,0.076,northeast,4.8,Yes
2023/09/08,12:00,0.148,0.131,0.215,0.204,0.207,0.118,0.076,north-northeast,5.6,Yes
2023/09/08,12:10,0.146,0.130,0.216,0.202,0.208,0.119,0.076,north-northeast,4.3,Yes
2023/09/08,12:20,0.145,0.129,0.214,0.203,0.208,0.118,0.076,north-northeast,5.4,Yes
2023/09/08,12:30,0.147,0.131,0.214,0.203,0.207,0.118,0.076,north,4.9,Yes
2023/09/08,12:40,0.146,0.130,0.216,0.200,0.207,0.117,0.075,north,4.1,Yes
2023/09/08,12:50,0.146,0.130,0.214,0.201,0.208,0.117,0.075,north,4.5,Yes
2023/09/08,13:00,0.147,0.130,0.213,0.203,0.210,0.117,0.077,north-northeast,5.8,Yes
2023/09/08,13:10,0.147,0.130,0.215,0.202,0.207,0.116,0.075,north,5.2,Yes
2023/09/08,13:20,0.146,0.130,0.214,0.200,0.205,0.118,0.075,north,4.9,Yes
2023/09/08,13:30,0.145,0.130,0.213,0.202,0.209,0.118,0.076,north-northeast,5.8,Yes
2023/09/08,13:40,0.146,0.132,0.215,0.202,0.209,0.119,0.077,north,6.4,Yes
2023/09/08,13:50,0.147,0.130,0.216,0.201,0.207,0.119,0.077,north-northeast,7.2,Yes
2023/09/08,14:00,0.146,0.131,0.213,0.202,0.209,0.120,0.076,north,6.4,Yes
2023/09/08,14:10,0.147,0.131,0.215,0.204,0.209,0.119,0.078,north-northeast,6.9,Yes
2023/09/08,14:20,0.149,0.132,0.214,0.201,0.207,0.118,0.076,northeast,6.3,Yes
2023/09/08,14:30,0.146,0.131,0.212,0.201,0.208,0.119,0.077,east-northeast,3.9,Yes
2023/09/08,14:40,0.147,0.132,0.213,0.202,0.211,0.121,0.079,east-northeast,8.2,Yes
2023/09/08,14:50,0.148,0.130,0.214,0.200,0.208,0.119,0.079,east-northeast,6.8,Yes
2023/09/08,15:00,0.147,0.132,0.210,0.199,0.206,0.119,0.078,-,CALM,Yes
2023/09/08,15:10,0.147,0.133,0.210,0.200,0.208,0.119,0.078,east-southeast,7.4,Yes
2023/09/08,15:20,0.148,0.132,0.212,0.200,0.208,0.118,0.080,east-southeast,6.9,Yes
2023/09/08,15:30,0.148,0.131,0.211,0.199,0.207,0.119,0.078,east-southeast,6.7,Yes
2023/09/08,15:40,0.146,0.132,0.212,0.201,0.210,0.118,0.078,east-southeast,6.4,Yes
2023/09/08,15:50,0.146,0.132,0.213,0.200,0.208,0.118,0.078,east-southeast,8.9,Yes
2023/09/08,16:00,0.143,0.129,0.211,0.198,0.204,0.116,0.077,east-southeast,10.9,No
2023/09/08,16:10,0.144,0.129,0.211,0.200,0.207,0.116,0.076,east-southeast,9.8,No
2023/09/08,16:20,0.143,0.129,0.211,0.200,0.207,0.116,0.076,southeast,8.5,No
2023/09/08,16:30,0.145,0.128,0.208,0.198,0.204,0.116,0.075,southeast,8.1,Yes
2023/09/08,16:40,0.143,0.127,0.208,0.197,0.204,0.115,0.075,east-southeast,8.6,Yes
2023/09/08,16:50,0.141,0.128,0.211,0.199,0.206,0.115,0.075,east-southeast,11.1,Yes
2023/09/08,17:00,0.143,0.128,0.209,0.198,0.206,0.115,0.075,east-southeast,10.7,Yes
2023/09/08,17:10,0.143,0.128,0.208,0.196,0.202,0.116,0.075,east-southeast,11.5,Yes
2023/09/08,17:20,0.143,0.129,0.210,0.199,0.206,0.117,0.076,east,9.8,Yes
2023/09/08,17:30,0.143,0.129,0.209,0.197,0.206,0.116,0.077,east-southeast,8.3,Yes
2023/09/08,17:40,0.143,0.129,0.206,0.195,0.203,0.116,0.077,east-southeast,10.0,Yes
2023/09/08,17:50,0.143,0.130,0.210,0.199,0.207,0.115,0.078,east-southeast,10.0,Yes
2023/09/08,18:00,0.141,0.128,0.208,0.197,0.206,0.117,0.077,east,8.7,Yes
2023/09/08,18:10,0.143,0.129,0.208,0.195,0.203,0.116,0.077,east,8.2,Yes
2023/09/08,18:20,0.140,0.130,0.209,0.197,0.206,0.116,0.077,east,8.1,Yes
2023/09/08,18:30,0.141,0.127,0.207,0.194,0.206,0.116,0.077,-,CALM,Yes
2023/09/08,18:40,0.142,0.129,0.207,0.194,0.204,0.116,0.078,east,9.2,Yes
2023/09/08,18:50,0.141,0.131,0.210,0.197,0.207,0.116,0.079,east,11.1,Yes
2023/09/08,19:00,0.141,0.130,0.208,0.197,0.207,0.117,0.078,east,12.2,Yes
2023/09/08,19:10,0.143,0.129,0.208,0.196,0.205,0.117,0.077,east-southeast,10.4,Yes
2023/09/08,19:20,0.143,0.129,0.210,0.199,0.206,0.117,0.078,-,CALM,Yes
2023/09/08,19:30,0.140,0.129,0.208,0.199,0.208,0.117,0.080,east,12.6,Yes
2023/09/08,19:40,0.144,0.129,0.210,0.197,0.206,0.117,0.078,east,11.5,Yes
2023/09/08,19:50,0.143,0.130,0.211,0.199,0.204,0.116,0.077,east-southeast,14.0,Yes
2023/09/08,20:00,0.142,0.130,0.209,0.200,0.208,0.115,0.078,-,CALM,Yes
2023/09/08,20:10,0.141,0.129,0.205,0.195,0.205,0.116,0.078,-,CALM,Yes
2023/09/08,20:20,0.142,0.130,0.207,0.195,0.204,0.117,0.079,-,CALM,Yes
2023/09/08,20:30,0.141,0.131,0.206,0.195,0.206,0.116,0.079,-,CALM,Yes
2023/09/08,20:40,0.140,0.128,0.206,0.195,0.207,0.116,0.079,-,CALM,Yes
2023/09/08,20:50,0.141,0.129,0.204,0.190,0.201,0.117,0.080,-,CALM,Yes
2023/09/08,21:00,0.139,0.131,0.201,0.193,0.204,0.117,0.082,-,CALM,Yes
2023/09/08,21:10,0.137,0.131,0.199,0.191,0.205,0.117,0.084,-,CALM,Yes
2023/09/08,21:20,0.140,0.131,0.202,0.194,0.206,0.118,0.084,-,CALM,Yes
2023/09/08,21:30,0.143,0.133,0.206,0.198,0.205,0.118,0.083,-,CALM,Yes
2023/09/08,21:40,0.142,0.132,0.203,0.197,0.206,0.118,0.084,-,CALM,Yes
2023/09/08,21:50,0.139,0.131,0.205,0.196,0.208,0.118,0.084,-,CALM,Yes
2023/09/08,22:00,0.143,0.132,0.207,0.197,0.206,0.117,0.083,east-southeast,17.0,Yes
2023/09/08,22:10,0.143,0.130,0.206,0.201,0.206,0.115,0.081,east-southeast,15.6,Yes
2023/09/08,22:20,0.140,0.130,0.204,0.199,0.208,0.115,0.081,east-southeast,16.9,Yes
2023/09/08,22:30,0.140,0.128,0.207,0.197,0.207,0.114,0.079,-,CALM,Yes
2023/09/08,22:40,0.142,0.128,0.206,0.198,0.204,0.115,0.078,-,CALM,Yes
2023/09/08,22:50,0.140,0.128,0.204,0.198,0.204,0.113,0.077,-,CALM,Yes
2023/09/08,23:00,0.138,0.126,0.202,0.195,0.204,0.113,0.078,-,CALM,Yes
2023/09/08,23:10,0.138,0.127,0.202,0.191,0.202,0.113,0.076,-,CALM,Yes
2023/09/08,23:20,0.137,0.126,0.197,0.190,0.199,0.111,0.076,east,20.5,Yes
2023/09/08,23:30,0.130,0.125,0.187,0.184,0.197,0.111,0.078,-,CALM,Yes
2023/09/08,23:40,0.127,0.123,0.186,0.183,0.195,0.112,0.079,-,CALM,Yes
2023/09/08,23:50,0.131,0.128,0.194,0.188,0.197,0.112,0.080,-,CALM,Yes
